Weather History for KMPV - June, 2014

Change the Weather History Date:

Sunday, June 15, 2014

  Actual Average Record
Temperature  
Mean Temperature 58 °F 63 °F  
Max Temperature 67 °F 74 °F 92 °F (1988)
Min Temperature 48 °F 51 °F 38 °F (1997)
Degree Days  
Heating Degree Days 6 4  
Month to date heating degree days 82  
Since 1 June heating degree days 82  
Since 1 July heating degree days 8142  
Cooling Degree Days 0 2  
Month to date cooling degree days 7 19  
Year to date cooling degree days 8 29  
Since 1 June cooling degree days 7 19  
Growing Degree Days 8 (Base 50)    
Moisture  
Dew Point 50 °F    
Average Humidity 78    
Maximum Humidity 100    
Minimum Humidity 56    
Precipitation  
Precipitation 0.00 in 0.14 in 1.19 in (1968)
Month to date precipitation 1.95 1.93  
Year to date precipitation 14.55 14.84  
Sea Level Pressure  
Sea Level Pressure 30.11 in    
Wind  
Wind Speed 8 mph (NW)    
Max Wind Speed 18 mph    
Max Gust Speed 24 mph    
Visibility 10 miles    
Events      
T = Trace of Precipitation, MM = Missing Value Source: NWS Daily Summary

Daily Weather History Graph

Daily Weather History Graph

Search for Another Location

Airport or City:

Trip Planner

Search our weather history database for the weather conditions in past years. The results will help you decide how hot, cold, wet, or windy it might be!

Date:

Astronomy

Jun. 15, 2014 Rise Set
Actual Time 5:06 AM EDT 8:35 PM EDT
Civil Twilight 4:29 AM EDT 9:12 PM EDT
Nautical Twilight 3:41 AM EDT 10:00 PM EDT
Astronomical Twilight 2:40 AM EDT 11:01 PM EDT
Moon 10:37 PM EDT (6/15) 8:01 AM EDT (6/15)
Length of Visible Light 16h 42m
Length of Day
15h 29m
Waning Gibbous, 91% of the Moon is Illuminated
Jun 15
Waning Gibbous
Jun 19
Last Quarter
Jun 27
New
Jul 5
First Quarter
Jul 12
Full

Hourly Weather History & Observations

Time (EDT) Temp. Dew Point Humidity Pressure Visibility Wind Dir Wind Speed Gust Speed Precip Events Conditions
12:49 AM 55.4 °F 51.8 °F 88% 30.01 in 10.0 mi NW 12.7 mph 20.7 mph 0.01 in   Overcast
12:51 AM 55.4 °F 51.8 °F 88% 30.02 in 10.0 mi NW 11.5 mph 20.7 mph N/A   Overcast
1:51 AM 54.0 °F 53.1 °F 97% 30.02 in 10.0 mi NW 8.1 mph - N/A   Overcast
2:31 AM 54.0 °F 52.0 °F 93% 30.02 in 10.0 mi NW 6.9 mph - N/A   Overcast
2:51 AM 54.0 °F 52.0 °F 93% 30.02 in 10.0 mi NW 8.1 mph - N/A   Overcast
3:46 AM 53.6 °F 51.8 °F 94% 30.04 in 10.0 mi WNW 9.2 mph - N/A   Overcast
3:51 AM 54.0 °F 51.1 °F 90% 30.04 in 10.0 mi NW 10.4 mph - N/A   Overcast
4:51 AM 54.0 °F 50.0 °F 86% 30.08 in 10.0 mi NW 8.1 mph - N/A   Overcast
5:28 AM 53.1 °F 48.9 °F 86% 30.08 in 10.0 mi WNW 8.1 mph - N/A   Scattered Clouds
5:47 AM 51.8 °F 48.2 °F 88% 30.09 in 10.0 mi NW 6.9 mph - N/A   Mostly Cloudy
5:51 AM 52.0 °F 48.9 °F 89% 30.10 in 10.0 mi NW 4.6 mph - N/A   Mostly Cloudy
6:51 AM 53.1 °F 48.9 °F 86% 30.12 in 10.0 mi NW 5.8 mph - N/A   Overcast
7:51 AM 54.0 °F 48.9 °F 83% 30.13 in 10.0 mi NNW 6.9 mph - N/A   Overcast
8:51 AM 55.0 °F 50.0 °F 83% 30.14 in 10.0 mi WNW 10.4 mph - N/A   Overcast
9:51 AM 57.0 °F 48.9 °F 74% 30.14 in 10.0 mi Variable 6.9 mph - N/A   Overcast
10:51 AM 57.9 °F 51.1 °F 78% 30.14 in 10.0 mi NW 12.7 mph 18.4 mph N/A   Overcast
11:40 AM 61.0 °F 53.1 °F 75% 30.13 in 10.0 mi NW 16.1 mph 24.2 mph N/A   Scattered Clouds
11:51 AM 61.0 °F 52.0 °F 72% 30.14 in 10.0 mi NW 16.1 mph 24.2 mph N/A   Scattered Clouds
12:11 PM 60.1 °F 51.1 °F 72% 30.14 in 10.0 mi WNW 12.7 mph 20.7 mph N/A   Mostly Cloudy
12:51 PM 60.8 °F 53.6 °F 77% 30.13 in 10.0 mi NNW 11.5 mph - N/A   Mostly Cloudy
1:17 PM 62.1 °F 53.1 °F 72% 30.13 in 10.0 mi WNW 15.0 mph - N/A   Partly Cloudy
1:51 PM 64.0 °F 53.1 °F 67% 30.13 in 10.0 mi NW 11.5 mph - N/A   Partly Cloudy
2:51 PM 66.0 °F 53.1 °F 63% 30.13 in 10.0 mi NW 11.5 mph - N/A   Clear
3:51 PM 66.0 °F 51.1 °F 59% 30.13 in 10.0 mi NW 9.2 mph - N/A   Clear
4:51 PM 66.2 °F 50.0 °F 56% 30.13 in 10.0 mi WNW 15.0 mph 23.0 mph N/A   Clear
5:51 PM 64.9 °F 48.0 °F 54% 30.13 in 10.0 mi NW 9.2 mph - N/A   Clear
6:51 PM 64.9 °F 48.0 °F 54% 30.14 in 10.0 mi NNW 5.8 mph - N/A   Clear
7:51 PM 62.1 °F 48.0 °F 60% 30.14 in 10.0 mi NW 8.1 mph - N/A   Clear
8:51 PM 60.1 °F 46.9 °F 62% 30.15 in 10.0 mi WNW 6.9 mph - N/A   Clear
9:51 PM 57.9 °F 48.0 °F 70% 30.16 in 10.0 mi NW 4.6 mph - N/A   Clear
10:51 PM 53.1 °F 48.9 °F 86% 30.16 in 10.0 mi WSW 3.5 mph - N/A   Clear
11:51 PM 51.1 °F 46.9 °F 86% 30.17 in 10.0 mi Calm Calm - N/A   Clear